Location: Presov
(49.0000°N, 21.2500°E)
Time: 09:52:17
(UTC+02:00)

A-11 Canister half - Pass Details

Date: 20 April 2021
Orbit: 1526 x 1683 km, 47.3° (Epoch: 11 May)

Event Time Altitude Azimuth Distance (km) Brightness Sun altitude
Rises 21:32:45 0° 289° (WNW) 4,938 12.9 -17.3°
Reaches altitude 10° 21:36:04 10° 284° (WNW) 3,950 12.0 -17.7°
Maximum altitude 21:45:35 48° 214° (SW) 2,088 9.6 -18.8°
Enters shadow 21:51:17 25° 156° (SSE) 2,886 9.9 -19.4°
